timestamp,wind_dir_avg,wind_spd_avg,wind_spd_max_dir,wind_spd_gust,battery_voltage,lat,long
2023-09-24 00:04:00+00:00,266.0,9.2,277.0,11.67,12.41,47.59359,-54.27349
2023-09-24 00:14:00+00:00,262.0,8.34,259.0,9.71,12.41,47.59359,-54.27349
2023-09-24 00:24:00+00:00,266.0,8.24,272.0,9.06,12.41,47.59359,-54.27349
2023-09-24 00:34:00+00:00,269.0,8.58,269.0,10.0,12.41,47.59359,-54.27349
2023-09-24 00:44:00+00:00,273.0,7.44,276.0,8.53,12.41,47.59359,-54.27349
2023-09-24 00:54:00+00:00,277.0,8.33,281.0,8.97,12.41,47.59359,-54.27349
2023-09-24 01:04:00+00:00,274.0,8.03,271.0,9.66,12.41,47.59359,-54.27349
2023-09-24 01:14:01+00:00,280.0,7.7,282.0,8.66,12.33,47.59359,-54.27349
2023-09-24 01:24:01+00:00,285.0,8.22,285.0,9.28,12.33,47.59359,-54.27349
2023-09-24 01:34:01+00:00,289.0,7.99,291.0,8.75,12.33,47.59359,-54.27349
2023-09-24 01:44:01+00:00,287.0,6.6,284.0,7.14,12.33,47.59359,-54.27349
2023-09-24 01:54:01+00:00,288.0,6.93,287.0,7.37,12.33,47.59359,-54.27349
2023-09-24 02:04:01+00:00,287.0,7.08,291.0,7.84,12.33,47.59359,-54.27349
2023-09-24 02:14:00+00:00,287.0,6.82,288.0,7.86,12.41,47.59359,-54.27349
2023-09-24 02:24:00+00:00,288.0,7.54,287.0,8.67,12.41,47.59359,-54.27349
2023-09-24 02:34:00+00:00,297.0,7.23,299.0,7.85,12.41,47.59359,-54.27349
2023-09-24 02:44:00+00:00,298.0,6.73,308.0,7.83,12.41,47.59359,-54.27349
2023-09-24 02:54:00+00:00,302.0,7.87,306.0,8.89,12.41,47.59359,-54.27349
2023-09-24 03:04:00+00:00,303.0,8.43,307.0,9.85,12.41,47.59359,-54.27349
2023-09-24 03:14:01+00:00,297.0,7.18,288.0,8.39,12.33,47.59359,-54.27349
2023-09-24 03:24:01+00:00,297.0,7.63,302.0,8.85,12.33,47.59359,-54.27349
2023-09-24 03:34:01+00:00,292.0,8.31,288.0,9.2,12.33,47.59359,-54.27349
2023-09-24 03:44:01+00:00,298.0,7.92,299.0,8.94,12.33,47.59359,-54.27349
2023-09-24 03:54:01+00:00,294.0,7.92,295.0,8.88,12.33,47.59359,-54.27349
2023-09-24 04:04:01+00:00,283.0,6.84,282.0,7.59,12.33,47.59359,-54.27349
2023-09-24 04:14:00+00:00,294.0,8.31,293.0,9.47,12.33,47.59359,-54.27349
2023-09-24 04:24:00+00:00,291.0,8.8,289.0,10.22,12.33,47.59359,-54.27349
2023-09-24 04:34:00+00:00,296.0,8.34,292.0,9.39,12.33,47.59359,-54.27349
2023-09-24 04:44:00+00:00,299.0,8.79,294.0,10.11,12.33,47.59359,-54.27349
2023-09-24 04:54:00+00:00,296.0,8.49,299.0,9.88,12.33,47.59359,-54.27349
2023-09-24 05:04:00+00:00,290.0,8.85,289.0,9.84,12.33,47.59359,-54.27349
2023-09-24 05:14:01+00:00,285.0,8.72,285.0,10.6,12.33,47.59359,-54.27349
2023-09-24 05:24:01+00:00,285.0,7.23,281.0,8.45,12.33,47.59359,-54.27349
2023-09-24 05:34:01+00:00,279.0,7.61,280.0,8.48,12.33,47.59359,-54.27349
2023-09-24 05:44:01+00:00,272.0,7.44,267.0,9.3,12.33,47.59359,-54.27349
2023-09-24 05:54:01+00:00,276.0,7.59,274.0,8.51,12.33,47.59359,-54.27349
2023-09-24 06:04:01+00:00,276.0,7.39,273.0,8.25,12.33,47.59359,-54.27349
2023-09-24 06:14:00+00:00,280.0,7.86,280.0,9.08,12.33,47.59359,-54.27349
2023-09-24 06:24:00+00:00,291.0,6.55,289.0,7.63,12.33,47.59359,-54.27349
2023-09-24 06:34:00+00:00,296.0,7.48,299.0,9.24,12.33,47.59359,-54.27349
2023-09-24 06:44:00+00:00,283.0,7.79,282.0,8.77,12.33,47.59359,-54.27349
2023-09-24 06:54:00+00:00,295.0,7.41,300.0,9.27,12.33,47.59359,-54.27349
2023-09-24 07:04:00+00:00,307.0,8.91,308.0,10.21,12.33,47.59359,-54.27349
2023-09-24 07:14:00+00:00,309.0,8.81,308.0,10.63,12.25,47.59359,-54.27349
2023-09-24 07:24:00+00:00,303.0,8.52,299.0,9.86,12.25,47.59359,-54.27349
2023-09-24 07:34:00+00:00,306.0,7.16,308.0,8.49,12.25,47.59359,-54.27349
2023-09-24 07:44:00+00:00,305.0,8.17,307.0,9.57,12.25,47.59359,-54.27349
2023-09-24 07:54:00+00:00,305.0,6.87,298.0,8.16,12.25,47.59359,-54.27349
2023-09-24 08:04:00+00:00,307.0,6.91,313.0,8.95,12.25,47.59359,-54.27349
2023-09-24 08:14:00+00:00,306.0,7.76,299.0,10.28,12.25,47.59359,-54.27349
2023-09-24 08:24:00+00:00,311.0,7.18,314.0,8.39,12.25,47.59359,-54.27349
2023-09-24 08:34:00+00:00,303.0,6.18,300.0,7.46,12.25,47.59359,-54.27349
2023-09-24 08:44:00+00:00,302.0,6.85,310.0,8.67,12.25,47.59359,-54.27349
2023-09-24 08:54:00+00:00,302.0,7.19,292.0,8.51,12.25,47.59359,-54.27349
2023-09-24 09:04:00+00:00,300.0,7.03,286.0,8.54,12.25,47.59359,-54.27349
2023-09-24 09:14:00+00:00,300.0,7.05,301.0,8.01,12.25,47.59359,-54.27349
2023-09-24 09:24:00+00:00,303.0,6.44,308.0,7.59,12.25,47.59359,-54.27349
2023-09-24 09:34:00+00:00,302.0,6.32,302.0,7.03,12.25,47.59359,-54.27349
2023-09-24 09:44:00+00:00,304.0,7.16,309.0,8.19,12.25,47.59359,-54.27349
2023-09-24 09:54:00+00:00,296.0,7.34,294.0,8.97,12.25,47.59359,-54.27349
2023-09-24 10:04:00+00:00,294.0,7.8,302.0,8.96,12.25,47.59359,-54.27349
2023-09-24 10:14:01+00:00,291.0,7.01,284.0,8.37,12.81,47.59359,-54.27349
2023-09-24 10:24:01+00:00,291.0,8.22,288.0,9.63,12.81,47.59359,-54.27349
2023-09-24 10:34:01+00:00,298.0,7.57,296.0,9.2,12.81,47.59359,-54.27349
2023-09-24 10:44:01+00:00,302.0,7.25,307.0,8.79,12.81,47.59359,-54.27349
2023-09-24 10:54:01+00:00,321.0,7.43,323.0,8.82,12.81,47.59359,-54.27349
2023-09-24 11:04:01+00:00,314.0,6.36,323.0,8.16,12.81,47.59359,-54.27349
2023-09-24 11:14:01+00:00,313.0,7.68,317.0,9.02,13.92,47.59359,-54.27349
2023-09-24 11:24:01+00:00,311.0,6.02,307.0,8.07,13.92,47.59359,-54.27349
2023-09-24 11:34:01+00:00,302.0,6.79,307.0,7.65,13.92,47.59359,-54.27349
2023-09-24 11:44:01+00:00,305.0,6.29,304.0,7.45,13.92,47.59359,-54.27349
2023-09-24 11:54:01+00:00,311.0,5.95,307.0,6.91,13.92,47.59359,-54.27349
2023-09-24 12:04:01+00:00,306.0,6.65,302.0,8.52,13.92,47.59359,-54.27349
2023-09-24 12:14:01+00:00,302.0,6.65,304.0,7.57,14.32,47.59359,-54.27349
2023-09-24 12:24:01+00:00,305.0,3.32,314.0,4.0,14.32,47.59359,-54.27349
2023-09-24 12:34:01+00:00,305.0,4.08,302.0,5.23,14.32,47.59359,-54.27349
2023-09-24 12:44:01+00:00,317.0,6.0,316.0,7.02,14.32,47.59359,-54.27349
2023-09-24 12:54:01+00:00,314.0,3.3,308.0,4.39,14.32,47.59359,-54.27349
2023-09-24 13:04:01+00:00,313.0,4.54,312.0,5.38,14.32,47.59359,-54.27349
2023-09-24 13:14:01+00:00,322.0,5.64,325.0,6.66,13.53,47.59359,-54.27349
2023-09-24 13:24:01+00:00,342.0,5.27,345.0,6.67,13.53,47.59359,-54.27349
2023-09-24 13:34:01+00:00,331.0,4.5,339.0,5.33,13.53,47.59359,-54.27349
2023-09-24 13:44:01+00:00,334.0,3.66,335.0,4.07,13.53,47.59359,-54.27349
2023-09-24 13:54:01+00:00,341.0,3.87,332.0,4.9,13.53,47.59359,-54.27349
2023-09-24 14:04:01+00:00,341.0,4.61,332.0,5.08,13.53,47.59359,-54.27349
2023-09-24 14:14:00+00:00,344.0,1.92,341.0,2.34,14.0,47.59359,-54.27349
2023-09-24 14:24:00+00:00,320.0,3.28,324.0,4.2,14.0,47.59359,-54.27349
2023-09-24 14:34:00+00:00,305.0,2.08,311.0,2.36,14.0,47.59359,-54.27349
2023-09-24 14:44:00+00:00,290.0,2.28,284.0,2.84,14.0,47.59359,-54.27349
2023-09-24 14:54:00+00:00,271.0,3.16,265.0,3.96,14.0,47.59359,-54.27349
2023-09-24 15:04:00+00:00,311.0,3.91,304.0,5.41,14.0,47.59359,-54.27349
2023-09-24 15:14:01+00:00,290.0,3.14,293.0,4.33,13.76,47.59359,-54.27349
2023-09-24 15:24:01+00:00,339.0,2.66,335.0,3.04,13.76,47.59359,-54.27349
2023-09-24 15:34:01+00:00,293.0,5.06,295.0,5.76,13.76,47.59359,-54.27349
2023-09-24 15:44:01+00:00,304.0,6.9,313.0,7.76,13.76,47.59359,-54.27349
2023-09-24 15:54:01+00:00,312.0,6.82,315.0,8.5,13.76,47.59359,-54.27349
2023-09-24 16:04:01+00:00,293.0,5.55,297.0,6.11,13.76,47.59359,-54.27349
2023-09-24 16:14:01+00:00,286.0,4.42,288.0,4.84,13.76,47.59359,-54.27349
2023-09-24 16:24:01+00:00,306.0,4.7,307.0,6.26,13.76,47.59359,-54.27349
2023-09-24 16:34:01+00:00,298.0,3.5,298.0,4.61,13.76,47.59359,-54.27349
2023-09-24 16:44:01+00:00,303.0,4.13,299.0,4.75,13.76,47.59359,-54.27349
2023-09-24 16:54:01+00:00,307.0,4.23,308.0,4.73,13.76,47.59359,-54.27349
2023-09-24 17:04:01+00:00,322.0,2.98,323.0,3.23,13.76,47.59359,-54.27349
2023-09-24 17:14:00+00:00,327.0,3.36,323.0,4.19,14.4,47.59359,-54.27349
2023-09-24 17:24:00+00:00,318.0,4.7,317.0,5.29,14.4,47.59359,-54.27349
2023-09-24 17:34:00+00:00,330.0,2.82,319.0,3.59,14.4,47.59359,-54.27349
2023-09-24 17:44:00+00:00,300.0,2.49,303.0,3.9,14.4,47.59359,-54.27349
2023-09-24 17:54:00+00:00,267.0,2.77,268.0,3.5,14.4,47.59359,-54.27349
2023-09-24 18:04:00+00:00,244.0,2.19,238.0,2.4,14.4,47.59359,-54.27349
2023-09-24 18:14:01+00:00,255.0,1.48,258.0,1.74,14.08,47.59359,-54.27349
2023-09-24 18:24:01+00:00,298.0,3.26,296.0,4.06,14.08,47.59359,-54.27349
2023-09-24 18:34:01+00:00,248.0,1.99,232.0,2.58,14.08,47.59359,-54.27349
2023-09-24 18:44:01+00:00,227.0,3.79,252.0,4.81,14.08,47.59359,-54.27349
2023-09-24 18:54:01+00:00,259.0,5.13,261.0,5.85,14.08,47.59359,-54.27349
2023-09-24 19:04:01+00:00,248.0,3.97,253.0,4.5,14.08,47.59359,-54.27349
2023-09-24 19:14:00+00:00,250.0,4.8,255.0,5.84,13.76,47.59359,-54.27349
2023-09-24 19:24:00+00:00,253.0,4.55,250.0,5.48,13.76,47.59359,-54.27349
2023-09-24 19:34:00+00:00,260.0,5.71,259.0,6.51,13.76,47.59359,-54.27349
2023-09-24 19:44:00+00:00,250.0,4.88,253.0,7.03,13.76,47.59359,-54.27349
2023-09-24 19:54:00+00:00,265.0,5.25,266.0,5.79,13.76,47.59359,-54.27349
2023-09-24 20:04:00+00:00,262.0,5.55,261.0,6.6,13.76,47.59359,-54.27349
2023-09-24 20:14:00+00:00,261.0,6.12,260.0,7.04,13.44,47.59359,-54.27349
2023-09-24 20:24:00+00:00,262.0,7.92,258.0,8.66,13.44,47.59359,-54.27349
2023-09-24 20:34:00+00:00,266.0,6.9,268.0,7.63,13.44,47.59359,-54.27349
2023-09-24 20:44:00+00:00,260.0,5.96,257.0,6.44,13.44,47.59359,-54.27349
2023-09-24 20:54:00+00:00,245.0,4.77,250.0,5.41,13.44,47.59359,-54.27349
2023-09-24 21:04:00+00:00,247.0,5.82,251.0,6.37,13.44,47.59359,-54.27349
2023-09-24 21:14:00+00:00,244.0,5.49,242.0,6.28,12.89,47.59359,-54.27349
2023-09-24 21:24:00+00:00,241.0,5.8,242.0,6.63,12.89,47.59359,-54.27349
2023-09-24 21:34:00+00:00,238.0,6.57,235.0,7.32,12.89,47.59359,-54.27349
2023-09-24 21:44:00+00:00,241.0,5.92,243.0,6.79,12.89,47.59359,-54.27349
2023-09-24 21:54:00+00:00,247.0,6.76,249.0,7.24,12.89,47.59359,-54.27349
2023-09-24 22:04:00+00:00,245.0,5.74,247.0,6.4,12.89,47.59359,-54.27349
2023-09-24 22:14:00+00:00,234.0,6.01,237.0,7.17,12.49,47.59359,-54.27349
2023-09-24 22:24:00+00:00,238.0,6.95,237.0,7.58,12.49,47.59359,-54.27349
2023-09-24 22:34:00+00:00,237.0,7.62,237.0,8.31,12.49,47.59359,-54.27349
2023-09-24 22:44:00+00:00,244.0,6.61,242.0,7.45,12.49,47.59359,-54.27349
2023-09-24 22:54:00+00:00,247.0,7.55,243.0,8.3,12.49,47.59359,-54.27349
2023-09-24 23:04:00+00:00,247.0,6.89,251.0,7.65,12.49,47.59359,-54.27349
2023-09-24 23:14:01+00:00,246.0,7.49,245.0,8.18,12.49,47.59359,-54.27349
2023-09-24 23:24:01+00:00,250.0,6.0,248.0,6.5,12.49,47.59359,-54.27349
2023-09-24 23:34:01+00:00,250.0,5.31,253.0,6.09,12.49,47.59359,-54.27349
2023-09-24 23:44:01+00:00,244.0,4.38,251.0,5.18,12.49,47.59359,-54.27349
2023-09-24 23:54:01+00:00,255.0,4.62,259.0,5.64,12.49,47.59359,-54.27349
